Content
SEND FEEDBACK

Daily
Averages
Monthly
Summary
United States of America

GREENFIELD, MASSACHUSETTS


Home > North America > United States > Massachusetts
Elevation: 190 feet     Latitude: 42 37N     Longitude: 072 33W

WEATHER
 
SELECT A DAY
Number of Records: 212,714;   Date Range: 7/1/96 - 9/20/14
 
SHARE

PRINT THIS DATA

[ ← Previous Day ]
WEATHER ALMANAC - MAY 12, 2014
[ Next Day → ]
[ °C ]   °F
Weather ElementAverageHighLow
Temperature66.8 °F86 °F (4:52 pm)45 °F (3:52 am)
Dewpoint40.9 °F52 °F (11:52 pm)34 °F (3:52 pm)
Humidity48 %90 % (5:52 am)16 % (3:52 pm)
Barometer30.05 in30.12 in (8:52 am)29.98 in (4:52 pm)
Wind Speed6.8 mph17.3 mph (4:52 pm)
Weather ElementAverage
Visibility10 mi
Wind DirectionENE (79.5 °)

Weather ElementTotal
Precipitation---
Cooling Degree Days0.5 (Base 65)
Growing Degree Days15.5 (Base 50)
Averaged from 21 records on May 12, 2014
WEATHER CONDITIONS BREAKOUT
WIND DIRECTION BREAKOUT
WEATHER BY HOUR - MAY 12, 2014
[ °C ]   °F
Local TimeTemperatureDewpointHumidityBarometerVisibilityWind DirectionWind SpeedGust SpeedPrecipitationEventsConditions
1:52 AM48.9 °F42.1 °F77 %30.08 in10.0 miSW (230°)3.5 mphClear
2:52 AM46.9 °F41.0 °F80 %30.08 in10.0 miNorthPartly Cloudy
3:52 AM45.0 °F41.0 °F86 %30.09 in10.0 miCalmClear
4:52 AM45.0 °F41.0 °F86 %30.10 in10.0 miNorthClear
5:52 AM45.0 °F42.1 °F90 %30.11 in10.0 miCalmClear
6:52 AM48.9 °F43.0 °F80 %30.11 in10.0 miNorthClear
7:52 AM55.9 °F43.0 °F62 %30.11 in10.0 miNorthClear
8:52 AM63.0 °F42.1 °F46 %30.12 in10.0 miNorthClear
10:52 AM75.0 °F36.0 °F24 %30.09 in10.0 miNorthClear
11:52 AM78.1 °F36.0 °F22 %30.07 in10.0 miNorthClear
12:52 PM81.0 °F36.0 °F20 %30.05 in10.0 miSW (230°)9.2 mphClear
1:52 PM82.9 °F35.1 °F18 %30.03 in10.0 miVariable6.9 mphPartly Cloudy
2:52 PM84.9 °F36.0 °F17 %30.01 in10.0 miNorthClear
3:52 PM84.9 °F34.0 °F16 %29.99 in10.0 miWest (260°)11.5 mphClear
4:52 PM86.0 °F36.0 °F17 %29.98 in10.0 miNW (310°)17.3 mphClear
5:52 PM84.9 °F37.0 °F18 %29.99 in10.0 miNW (320°)11.5 mphClear
6:52 PM82.9 °F39.0 °F21 %29.99 in10.0 miNW (320°)8.1 mphClear
7:52 PM73.0 °F48.0 °F41 %30.01 in10.0 miCalmClear
8:52 PM69.1 °F48.0 °F47 %30.02 in10.0 miNorthClear
9:52 PM62.1 °F50.0 °F65 %30.04 in10.0 miNorthClear
11:52 PM60.1 °F52.0 °F75 %30.06 in10.0 miNorthClear
Hourly data recorded from KORE, located miles away from Greenfield, Massachusetts







STORIES FROM OUR PARTNERS